Jackson, MI

5:05 AM EDT on June 23, 2017 (GMT -0400)
Jackson County-Reynolds

Weather History for KJXN - January, 2014

Change the Weather History Date:

Thursday, January 16, 2014

  Actual Average Record
Temperature  
Mean Temperature 22 °F 23 °F  
Max Temperature 27 °F 31 °F 56 °F (1949)
Min Temperature 16 °F 16 °F -18 °F (1972)
Degree Days  
Heating Degree Days 43 42  
Month to date heating degree days 752 661  
Since 1 July heating degree days 3432 3209  
Cooling Degree Days 0 0  
Month to date cooling degree days 0 0  
Year to date cooling degree days 0 0  
Moisture  
Dew Point 18 °F    
Average Humidity 83    
Maximum Humidity 92    
Minimum Humidity 73    
Precipitation  
Precipitation 0.02 in 0.05 in 0.52 in (1991)
Month to date precipitation 1.76 0.87  
Year to date precipitation 1.76 0.87  
Sea Level Pressure  
Sea Level Pressure 29.69 in    
Wind  
Wind Speed 13 mph (South)    
Max Wind Speed 20 mph    
Max Gust Speed 29 mph    
Visibility 4 miles    
Events Fog , Snow    
T = Trace of Precipitation, MM = Missing Value Source: NWS Daily Summary

Daily Weather History Graph

Daily Weather History Graph

Search for Another Location

Airport or City:

Trip Planner

Search our weather history database for the weather conditions in past years. The results will help you decide how hot, cold, wet, or windy it might be!

Date:

Astronomy

Jan. 16, 2014 Rise Set
Actual Time 8:03 AM EST 5:32 PM EST
Civil Twilight 7:32 AM EST 6:02 PM EST
Nautical Twilight 6:58 AM EST 6:37 PM EST
Astronomical Twilight 6:24 AM EST 7:11 PM EST
Moon 6:24 PM EST (1/16) 7:55 AM EST (1/16)
Length of Visible Light 10h 30m
Length of Day
9h 28m
Full, 100% of the Moon is Illuminated
Jan 16
Full
Jan 24
Last Quarter
Jan 30
New
Feb 6
First Quarter
Feb 14
Full

Hourly Weather History & Observations

Time (EST) Temp. Windchill Dew Point Humidity Pressure Visibility Wind Dir Wind Speed Gust Speed Precip Events Conditions
12:56 AM 18.0 °F 6.1 °F 10.0 °F 71% 29.93 in 10.0 mi SSW 10.4 mph - N/A   Overcast
1:56 AM 18.0 °F 5.4 °F 10.0 °F 71% 29.92 in 10.0 mi SSW 11.5 mph - N/A   Overcast
2:56 AM 16.0 °F 1.7 °F 9.0 °F 74% 29.93 in 10.0 mi SSW 13.8 mph - N/A   Overcast
3:56 AM 17.1 °F 3.0 °F 10.0 °F 74% 29.90 in 10.0 mi SSW 13.8 mph 24.2 mph N/A   Overcast
4:25 AM 17.1 °F 4.3 °F 10.0 °F 74% 29.81 in 10.0 mi South 11.5 mph - N/A   Overcast
4:56 AM 17.1 °F 3.0 °F 10.9 °F 77% 29.85 in 10.0 mi South 13.8 mph - N/A   Overcast
5:56 AM 18.0 °F 4.8 °F 10.9 °F 74% 29.83 in 10.0 mi South 12.7 mph - N/A   Overcast
6:56 AM 18.0 °F 3.6 °F 10.9 °F 74% 29.79 in 10.0 mi South 15.0 mph - N/A   Overcast
7:56 AM 19.0 °F 6.1 °F 12.0 °F 74% 29.77 in 10.0 mi South 12.7 mph - N/A   Overcast
8:54 AM 19.4 °F 5.0 °F 12.2 °F 74% 29.72 in 2.0 mi South 16.1 mph - 0.00 in Snow Light Snow
8:56 AM 19.0 °F 6.1 °F 12.9 °F 77% 29.77 in 2.0 mi South 12.7 mph 23.0 mph 0.00 in Snow Light Snow
9:04 AM 19.9 °F 6.2 °F 12.9 °F 74% 29.72 in 1.5 mi South 15.0 mph 26.5 mph 0.00 in Snow Light Snow
9:56 AM 19.9 °F 6.2 °F 15.1 °F 81% 29.76 in 1.0 mi South 15.0 mph - 0.00 in Snow Light Snow
10:04 AM 19.9 °F 5.7 °F 16.0 °F 85% 29.71 in 0.8 mi South 16.1 mph 21.9 mph 0.00 in Snow Light Snow
10:56 AM 21.0 °F 7.6 °F 17.1 °F 85% 29.75 in 0.5 mi South 15.0 mph 28.8 mph 0.00 in Fog , Snow Light Snow
11:11 AM 21.0 °F 9.9 °F 18.0 °F 88% 29.70 in 0.5 mi South 10.4 mph 21.9 mph 0.00 in Fog , Snow Light Snow
11:18 AM 21.9 °F 9.2 °F 17.1 °F 82% 29.70 in 0.8 mi South 13.8 mph 24.2 mph 0.00 in Snow Light Snow
11:28 AM 21.9 °F 8.7 °F 18.0 °F 85% 29.69 in 1.0 mi South 15.0 mph - 0.00 in Snow Light Snow
11:37 AM 21.9 °F 9.2 °F 18.0 °F 85% 29.69 in 0.8 mi South 13.8 mph 23.0 mph 0.00 in Snow Light Snow
11:56 AM 21.9 °F 8.2 °F 18.0 °F 85% 29.72 in 0.8 mi South 16.1 mph 20.7 mph 0.00 in Snow Light Snow
12:56 PM 23.0 °F 10.1 °F 19.0 °F 85% 29.68 in 0.8 mi South 15.0 mph 23.0 mph 0.01 in Snow Light Snow
1:11 PM 23.0 °F 11.7 °F 19.0 °F 85% 29.63 in 0.5 mi South 11.5 mph 24.2 mph 0.00 in Fog , Snow Light Snow
1:35 PM 23.0 °F 10.1 °F 19.0 °F 85% 29.62 in 0.2 mi South 15.0 mph - 0.00 in Fog , Snow Snow
1:56 PM 23.0 °F 10.6 °F 19.9 °F 88% 29.65 in 0.5 mi South 13.8 mph - 0.00 in Fog , Snow Snow
2:10 PM 24.1 °F 11.5 °F 19.9 °F 84% 29.60 in 1.0 mi South 15.0 mph 21.9 mph 0.00 in Snow Light Snow
2:56 PM 24.1 °F 12.0 °F 19.9 °F 84% 29.64 in 2.0 mi South 13.8 mph 21.9 mph 0.00 in Snow Light Snow
3:06 PM 25.0 °F 12.6 °F 19.9 °F 81% 29.59 in 5.0 mi South 15.0 mph - 0.00 in   Haze
3:56 PM 25.0 °F 14.8 °F 19.9 °F 81% 29.64 in 10.0 mi South 10.4 mph - 0.00 in   Overcast
4:31 PM 25.0 °F 13.6 °F 19.9 °F 81% 29.60 in 10.0 mi South 12.7 mph - N/A   Overcast
4:56 PM 25.0 °F 13.1 °F 21.0 °F 85% 29.65 in 10.0 mi South 13.8 mph - N/A   Overcast
5:42 PM 25.0 °F 14.8 °F 21.0 °F 85% 29.60 in 2.0 mi South 10.4 mph - 0.00 in Snow Light Snow
5:51 PM 26.6 °F 16.2 °F 21.2 °F 80% 29.60 in 6.0 mi South 11.5 mph - 0.00 in Snow Light Snow
5:56 PM 26.1 °F 16.8 °F 21.0 °F 81% 29.65 in 7.0 mi South 9.2 mph - 0.00 in Snow Light Snow
6:56 PM 26.1 °F 15.6 °F 21.9 °F 84% 29.65 in 5.0 mi South 11.5 mph - 0.00 in Snow Light Snow
7:44 PM 26.1 °F 15.6 °F 21.9 °F 84% 29.60 in 4.0 mi South 11.5 mph - 0.00 in Snow Light Snow
7:52 PM 26.6 °F 14.7 °F 21.2 °F 80% 29.60 in 1.8 mi South 15.0 mph - 0.00 in Snow Light Snow
7:56 PM 26.1 °F 15.6 °F 21.9 °F 84% 29.64 in 1.2 mi South 11.5 mph - 0.00 in Snow Light Snow
8:54 PM 26.6 °F 16.2 °F 23.0 °F 86% 29.60 in 2.0 mi South 11.5 mph - 0.00 in Snow Light Snow
8:56 PM 26.1 °F 14.5 °F 23.0 °F 88% 29.64 in 2.0 mi South 13.8 mph - 0.00 in Snow Light Snow
9:26 PM 26.1 °F 16.2 °F 23.0 °F 88% 29.60 in 2.0 mi South 10.4 mph - 0.00 in Snow Light Snow
9:52 PM 26.6 °F 15.7 °F 23.0 °F 86% 29.60 in 3.0 mi South 12.7 mph - 0.00 in Snow Light Snow
9:56 PM 27.0 °F 17.3 °F 23.0 °F 85% 29.64 in 3.0 mi South 10.4 mph - 0.00 in Snow Light Snow
10:56 PM 27.0 °F 17.3 °F 24.1 °F 89% 29.64 in 4.0 mi South 10.4 mph - 0.01 in Snow Light Snow
11:13 PM 27.0 °F 18.0 °F 24.1 °F 89% 29.60 in 2.5 mi South 9.2 mph - 0.00 in Snow Light Snow
11:19 PM 27.0 °F 18.0 °F 24.1 °F 89% 29.59 in 3.0 mi SSW 9.2 mph - 0.00 in Snow Light Snow
11:56 PM 27.0 °F 18.0 °F 24.1 °F 89% 29.63 in 4.0 mi SSW 9.2 mph - 0.00 in Snow Light Snow